Location: ??????
(41.3164°N, 22.6615°E)
Time: 07:30:52
(UTC+00:00)

CUBESAT XI-V - Pass Details

Date: 09 July 2022
Orbit: 668 x 690 km, 98.1° (Epoch: 15 August)

Event Time Altitude Azimuth Distance (km) Brightness Sun altitude
Exits shadow 01:11:50 23° 254° (WSW) 1,403 ? -16.6°
Maximum altitude 01:12:23 24° 265° (W) 1,383 ? -16.6°
Drops below altitude 10° 01:16:06 10° 320° (NW) 2,102 ? -16.1°
Sets 01:18:43 0° 334° (NNW) 3,020 ? -15.8°
